Flag for Germany Weather past 2 weeks in Gera, Thuringia, Germany

Now
64 °F

Scattered clouds.


Feels Like: 64 °F
Forecast: 43 / 67 °F
Wind: 7 mph from East

Location: Gera-Leumnitz


UV Index: 3 (Moderate)

Visibility: 25 mi


Pressure: 29.78 "Hg

Humidity: 56%

Dew point: 48 °F

Location of GeraLocation

Historic Weather in Gera

°F

Gera temperature yesterday

Maximum temperature yesterday: 58 °F (at 7:00 PM)
Minimum temperature yesterday: 31 °F (at 4:00 AM)
Average temperature yesterday: 43 °F

Past Weeks' High & Low Weather Summary

 TemperatureHumidityPressure
High69 °F (Apr 7, 5:00 PM)99% (Apr 19, 7:00 AM)30.46 "Hg (Apr 19, 7:00 AM)
Low30 °F (Apr 17, 5:00 AM)35% (Apr 17, 1:00 PM)29.78 "Hg (Apr 20, 4:00 PM)
Average48 °F74%30.06 "Hg
* Reported Apr 5 4:00 PM — Apr 20 4:00 PM, Gera, Weather by CustomWeather, © 2014

Note: Actual official high and low records may vary slightly from our data, if they occured in-between our weather recording intervals... More about our weather records

Advertising

Historic Weather Conditions — Data for Previous 24 hours

 ConditionsComfort  
Time TempWeatherWind HumidityBarometerVisibility
4:00 PM
Apr 20
64 °FScattered clouds.7 mph56%29.78 "Hg25 mi
3:00 PM62 °FScattered clouds.6 mph54%29.79 "Hg25 mi
2:00 PM62 °FScattered clouds.7 mph56%29.81 "Hg22 mi
1:00 PM63 °FPassing clouds.8 mph49%29.81 "Hg22 mi
12:00 PM61 °FScattered clouds.7 mph57%29.83 "Hg16 mi
11:00 AM59 °FScattered clouds.7 mph64%29.83 "Hg17 mi
10:00 AM56 °FPassing clouds.3 mph72%29.84 "Hg19 mi
9:00 AM53 °FPassing clouds.6 mph80%29.84 "Hg19 mi
8:00 AM50 °FPassing clouds.5 mph84%29.84 "Hg17 mi
7:00 AM47 °FPassing clouds.5 mph87%29.84 "Hg11 mi
6:00 AM49 °FPassing clouds.5 mph83%29.83 "Hg8 mi
5:00 AM51 °FOvercast.5 mph81%29.83 "Hg5 mi
4:00 AM53 °FOvercast.6 mph76%29.84 "Hg6 mi
3:00 AM52 °FFog.5 mph80%29.86 "Hg4 mi
2:00 AM53 °FOvercast.3 mph79%29.87 "Hg4 mi
1:00 AM54 °FOvercast.5 mph77%29.88 "Hg5 mi
12:00 AM54 °FOvercast.2 mph84%29.90 "Hg5 mi
11:00 PM
Apr 19
53 °FOvercast.3 mph86%29.90 "Hg5 mi
10:00 PM53 °FFog.1 mph85%29.91 "Hg3 mi
9:00 PM55 °FOvercast.1 mph86%29.91 "Hg6 mi
8:00 PM56 °FOvercast.1 mph81%29.91 "Hg7 mi
7:00 PM58 °FOvercast.1 mph76%29.92 "Hg7 mi
6:00 PM57 °FOvercast.2 mph78%29.93 "Hg6 mi
5:00 PM55 °FOvercast.3 mph83%29.96 "Hg7 mi
Weather by CustomWeather, © 2014

See weather overview